BEL7JV EBBR-LEVC

Flight info

Callsign BEL7JV
Flight time 1h 56m
Altitude 33000
Route CIV N872 LESDO DCT KOVIN DCT DUCRA/N0451F350 DCT RESMI DCT DEKOD DCT DISAK DCT DIRMO DCT GUERE DCT EVPOK DCT AGN DCT ANETO DCT POSSY DCT ROCME DCT SEROX DCT CASPE DCT MLA DCT CRETA DCT RIMES DCT SAURA
Aircraft A320/M-SDE3FGHIRWY/LB1

Departure

Time 2026-05-08 19:32
Airport Brussels Airport (EBBR)

Arrival

Time 2026-05-08 21:29
Airport Valencia Airport (LEVC)
Time Latitude Longitude Altitude Speed Heading
2026-05-08 18:44 50.90287 4.48635 119 ft 0 kts 335°
2026-05-08 18:45 50.90294 4.48630 118 ft 0 kts 335°
2026-05-08 19:23 50.90293 4.48631 116 ft 1 kts 335°
2026-05-08 19:23 50.90277 4.48642 118 ft 3 kts 336°
2026-05-08 19:23 50.90258 4.48654 121 ft 3 kts 340°
2026-05-08 19:23 50.90239 4.48664 118 ft 3 kts 350°
2026-05-08 19:24 50.90220 4.48666 119 ft 3 kts 19°
2026-05-08 19:24 50.90210 4.48657 119 ft 1 kts 64°
2026-05-08 19:24 50.90209 4.48655 119 ft 0 kts 65°
2026-05-08 19:26 50.90222 4.48699 119 ft 6 kts 65°
2026-05-08 19:27 50.90240 4.48760 122 ft 9 kts 65°
2026-05-08 19:27 50.90278 4.48893 124 ft 16 kts 65°
2026-05-08 19:27 50.90325 4.49058 120 ft 17 kts 65°
2026-05-08 19:27 50.90375 4.49233 124 ft 18 kts 66°
2026-05-08 19:28 50.90417 4.49387 123 ft 13 kts 88°
2026-05-08 19:28 50.90350 4.49432 124 ft 13 kts 194°
2026-05-08 19:28 50.90250 4.49391 127 ft 17 kts 194°
2026-05-08 19:28 50.90138 4.49346 128 ft 17 kts 194°
2026-05-08 19:29 50.90020 4.49298 131 ft 18 kts 193°
2026-05-08 19:29 50.89907 4.49253 137 ft 15 kts 194°
2026-05-08 19:29 50.89819 4.49215 142 ft 10 kts 197°
2026-05-08 19:29 50.89729 4.49179 147 ft 20 kts 194°
2026-05-08 19:30 50.89614 4.49098 154 ft 17 kts 216°
2026-05-08 19:30 50.89510 4.49042 157 ft 15 kts 193°
2026-05-08 19:30 50.89420 4.49009 161 ft 12 kts 192°
2026-05-08 19:30 50.89365 4.49058 165 ft 10 kts 130°
2026-05-08 19:31 50.89271 4.49069 170 ft 17 kts 195°
2026-05-08 19:31 50.89172 4.49037 176 ft 12 kts 168°
2026-05-08 19:31 50.89157 4.49139 176 ft 10 kts 64°
2026-05-08 19:31 50.89163 4.49161 176 ft 0 kts 71°
2026-05-08 19:32 50.89177 4.49226 176 ft 32 kts 70°
2026-05-08 19:32 50.89345 4.49953 177 ft 104 kts 70°
2026-05-08 19:32 50.89659 4.51323 210 ft 153 kts 71°
2026-05-08 19:32 50.89999 4.52872 826 ft 149 kts 68°
2026-05-08 19:33 50.90455 4.54370 1458 ft 149 kts 64°
2026-05-08 19:33 50.90933 4.55824 2155 ft 148 kts 64°
2026-05-08 19:33 50.91402 4.57271 2773 ft 148 kts 63°
2026-05-08 19:33 50.91880 4.58711 3254 ft 148 kts 63°
2026-05-08 19:34 50.92373 4.60189 3596 ft 160 kts 63°
2026-05-08 19:34 50.92918 4.61839 3780 ft 182 kts 63°
2026-05-08 19:34 50.93539 4.63729 3946 ft 205 kts 65°
2026-05-08 19:34 50.94059 4.65980 4170 ft 230 kts 72°
2026-05-08 19:35 50.94569 4.68527 4530 ft 252 kts 73°
2026-05-08 19:35 50.95100 4.71239 5210 ft 261 kts 73°
2026-05-08 19:35 50.95520 4.74072 5943 ft 268 kts 88°
2026-05-08 19:35 50.95233 4.76994 6660 ft 272 kts 113°
2026-05-08 19:36 50.94183 4.79498 7374 ft 276 kts 138°
2026-05-08 19:36 50.92564 4.81113 8108 ft 278 kts 159°
2026-05-08 19:36 50.90768 4.82231 8867 ft 282 kts 162°
2026-05-08 19:36 50.88809 4.82637 9606 ft 284 kts 187°
2026-05-08 19:37 50.86954 4.81709 10305 ft 286 kts 211°
2026-05-08 19:37 50.85441 4.79561 10581 ft 306 kts 237°
2026-05-08 19:37 50.84464 4.76439 10738 ft 328 kts 246°
2026-05-08 19:37 50.83505 4.73004 10926 ft 349 kts 246°
2026-05-08 19:38 50.82518 4.69484 11442 ft 356 kts 246°
2026-05-08 19:38 50.81495 4.65860 12065 ft 361 kts 245°
2026-05-08 19:38 50.80454 4.62207 12708 ft 365 kts 245°
2026-05-08 19:38 50.79402 4.58540 13345 ft 368 kts 245°
2026-05-08 19:39 50.78343 4.54877 13961 ft 372 kts 244°
2026-05-08 19:39 50.77258 4.51130 14539 ft 375 kts 245°
2026-05-08 19:39 50.76170 4.47371 15121 ft 378 kts 245°
2026-05-08 19:39 50.75079 4.43607 15700 ft 381 kts 245°
2026-05-08 19:40 50.73972 4.39793 16291 ft 383 kts 245°
2026-05-08 19:40 50.72857 4.35951 16872 ft 386 kts 245°
2026-05-08 19:40 50.71736 4.32090 17441 ft 389 kts 245°
2026-05-08 19:40 50.70605 4.28199 18009 ft 391 kts 245°
2026-05-08 19:41 50.69466 4.24280 18555 ft 394 kts 245°
2026-05-08 19:41 50.68315 4.20331 19031 ft 398 kts 245°
2026-05-08 19:41 50.67152 4.16356 19498 ft 401 kts 245°
2026-05-08 19:41 50.65978 4.12355 19952 ft 404 kts 245°
2026-05-08 19:42 50.64790 4.08311 20393 ft 407 kts 246°
2026-05-08 19:42 50.63595 4.04249 20847 ft 410 kts 246°
2026-05-08 19:42 50.62389 4.00160 21254 ft 414 kts 245°
2026-05-08 19:42 50.61166 3.96033 21670 ft 417 kts 246°
2026-05-08 19:43 50.59934 3.91891 22066 ft 420 kts 245°
2026-05-08 19:43 50.58439 3.87920 22456 ft 424 kts 234°
2026-05-08 19:43 50.56520 3.84445 22811 ft 429 kts 224°
2026-05-08 19:43 50.54175 3.81493 23176 ft 433 kts 213°
2026-05-08 19:44 50.51510 3.79249 23528 ft 436 kts 204°
2026-05-08 19:44 50.48706 3.77353 23845 ft 439 kts 204°
2026-05-08 19:44 50.45892 3.75447 24129 ft 442 kts 204°
2026-05-08 19:44 50.43052 3.73523 24412 ft 445 kts 204°
2026-05-08 19:45 50.40222 3.71601 24682 ft 448 kts 204°
2026-05-08 19:45 50.37349 3.69642 24962 ft 451 kts 204°
2026-05-08 19:45 50.34448 3.67667 25198 ft 455 kts 205°
2026-05-08 19:45 50.31537 3.65688 25453 ft 457 kts 205°
2026-05-08 19:46 50.28606 3.63701 25721 ft 460 kts 205°
2026-05-08 19:46 50.25665 3.61710 25981 ft 462 kts 205°
2026-05-08 19:46 50.19733 3.57721 26386 ft 466 kts 205°
2026-05-08 19:47 50.16739 3.55716 26643 ft 468 kts 205°
2026-05-08 19:47 50.13769 3.53722 26884 ft 470 kts 206°
2026-05-08 19:47 50.10752 3.51693 27117 ft 473 kts 206°
2026-05-08 19:47 50.07717 3.49655 27347 ft 475 kts 206°
2026-05-08 19:48 50.04677 3.47618 27584 ft 477 kts 206°
2026-05-08 19:48 50.01620 3.45580 27808 ft 479 kts 206°
2026-05-08 19:48 49.98551 3.43544 28030 ft 480 kts 206°
2026-05-08 19:48 49.95471 3.41507 28234 ft 482 kts 206°
2026-05-08 19:49 49.92377 3.39437 28440 ft 484 kts 207°
2026-05-08 19:49 49.89322 3.37291 28700 ft 483 kts 208°
2026-05-08 19:49 49.86287 3.35068 29002 ft 482 kts 209°
2026-05-08 19:49 49.83261 3.32800 29290 ft 481 kts 210°
2026-05-08 19:50 49.80248 3.30534 29588 ft 481 kts 210°
2026-05-08 19:50 49.77233 3.28283 29883 ft 481 kts 210°
2026-05-08 19:50 49.74234 3.26072 30167 ft 481 kts 210°
2026-05-08 19:50 49.71206 3.23866 30420 ft 480 kts 209°
2026-05-08 19:51 49.68178 3.21679 30686 ft 478 kts 209°
2026-05-08 19:51 49.65172 3.19520 31001 ft 476 kts 209°
2026-05-08 19:51 49.62171 3.17364 31278 ft 475 kts 209°
2026-05-08 19:51 49.59174 3.15206 31548 ft 474 kts 210°
2026-05-08 19:52 49.56197 3.13055 31798 ft 472 kts 209°
2026-05-08 19:52 49.53268 3.10937 32115 ft 470 kts 209°
2026-05-08 19:52 49.50312 3.08800 32399 ft 469 kts 209°
2026-05-08 19:52 49.47363 3.06677 32649 ft 468 kts 209°
2026-05-08 19:53 49.44418 3.04563 32925 ft 466 kts 209°
2026-05-08 19:53 49.41475 3.02455 33059 ft 467 kts 209°
2026-05-08 19:53 49.35568 2.98226 33081 ft 468 kts 209°
2026-05-08 19:54 49.29685 2.94020 33081 ft 468 kts 209°
2026-05-08 19:54 49.23788 2.89819 33083 ft 466 kts 209°
2026-05-08 19:55 49.17908 2.85651 33080 ft 465 kts 209°
2026-05-08 19:55 49.12046 2.81499 33078 ft 464 kts 209°
2026-05-08 19:56 49.06222 2.77377 33078 ft 464 kts 209°
2026-05-08 19:56 49.00363 2.73251 33087 ft 462 kts 208°
2026-05-08 19:57 48.94518 2.69154 33097 ft 461 kts 208°
2026-05-08 19:57 48.88687 2.65077 33096 ft 460 kts 208°
2026-05-08 19:58 48.82866 2.60998 33063 ft 459 kts 208°
2026-05-08 19:58 48.77097 2.56977 33293 ft 459 kts 208°
2026-05-08 19:59 48.74200 2.54963 33545 ft 457 kts 208°
2026-05-08 19:59 48.71307 2.52950 33802 ft 456 kts 208°
2026-05-08 19:59 48.68413 2.50935 34034 ft 456 kts 208°
2026-05-08 19:59 48.65530 2.48931 34242 ft 455 kts 208°
2026-05-08 20:00 48.62657 2.46938 34446 ft 454 kts 208°
2026-05-08 20:00 48.59820 2.44977 34670 ft 452 kts 208°
2026-05-08 20:00 48.56952 2.42998 34900 ft 451 kts 208°
2026-05-08 20:00 48.54093 2.41028 35042 ft 451 kts 208°
2026-05-08 20:01 48.48385 2.37101 35067 ft 449 kts 208°
2026-05-08 20:01 48.42726 2.33211 35065 ft 449 kts 208°
2026-05-08 20:02 48.37050 2.29318 35062 ft 446 kts 207°
2026-05-08 20:02 48.31411 2.25468 35061 ft 446 kts 207°
2026-05-08 20:03 48.25751 2.21608 35057 ft 446 kts 207°
2026-05-08 20:03 48.20090 2.17758 35061 ft 446 kts 207°
2026-05-08 20:04 48.14322 2.14325 35062 ft 449 kts 197°
2026-05-08 20:04 48.08125 2.13463 35066 ft 454 kts 180°
2026-05-08 20:05 48.01809 2.13863 35061 ft 454 kts 180°
2026-05-08 20:05 47.95485 2.14235 35063 ft 453 kts 180°
2026-05-08 20:06 47.89181 2.14606 35071 ft 453 kts 180°
2026-05-08 20:06 47.82902 2.14967 35071 ft 452 kts 180°
2026-05-08 20:07 47.76629 2.15316 35041 ft 451 kts 180°
2026-05-08 20:07 47.70373 2.15688 35054 ft 450 kts 180°
2026-05-08 20:08 47.64101 2.16057 35052 ft 449 kts 180°
2026-05-08 20:08 47.57884 2.16420 35045 ft 448 kts 180°
2026-05-08 20:09 47.51687 2.16768 35038 ft 447 kts 180°
2026-05-08 20:09 47.45465 2.17123 35045 ft 446 kts 180°
2026-05-08 20:10 47.40307 2.17430 35038 ft 446 kts 180°
2026-05-08 20:10 47.33100 2.17849 35034 ft 444 kts 180°
2026-05-08 20:11 47.27954 2.18138 35031 ft 443 kts 180°
2026-05-08 20:11 47.21787 2.18494 35030 ft 443 kts 180°
2026-05-08 20:12 47.15623 2.18842 35021 ft 442 kts 179°
2026-05-08 20:12 47.09516 2.19172 35028 ft 440 kts 181°
2026-05-08 20:13 47.03400 2.18602 35027 ft 438 kts 186°
2026-05-08 20:13 46.97338 2.17891 35024 ft 438 kts 186°
2026-05-08 20:14 46.91254 2.17179 35020 ft 437 kts 185°
2026-05-08 20:14 46.85199 2.16480 35020 ft 436 kts 185°
2026-05-08 20:15 46.79184 2.15795 35019 ft 436 kts 185°
2026-05-08 20:15 46.73126 2.15100 35017 ft 435 kts 185°
2026-05-08 20:16 46.67079 2.14406 35012 ft 435 kts 185°
2026-05-08 20:16 46.61045 2.13711 35011 ft 435 kts 185°
2026-05-08 20:17 46.55052 2.13020 35007 ft 435 kts 185°
2026-05-08 20:17 46.49001 2.12332 35013 ft 434 kts 185°
2026-05-08 20:18 46.42998 2.11659 35010 ft 434 kts 185°
2026-05-08 20:18 46.36963 2.10983 35012 ft 434 kts 185°
2026-05-08 20:19 46.30973 2.10303 35012 ft 434 kts 185°
2026-05-08 20:19 46.24934 2.09615 35014 ft 434 kts 185°
2026-05-08 20:20 46.19064 2.07956 35012 ft 433 kts 200°
2026-05-08 20:20 46.13813 2.03683 35006 ft 435 kts 214°
2026-05-08 20:21 46.08844 1.98670 35001 ft 436 kts 213°
2026-05-08 20:21 46.03897 1.93708 35007 ft 436 kts 213°
2026-05-08 20:22 45.98917 1.88714 35005 ft 437 kts 213°
2026-05-08 20:22 45.93916 1.83692 35014 ft 437 kts 213°
2026-05-08 20:23 45.88947 1.78719 35023 ft 437 kts 213°
2026-05-08 20:23 45.83947 1.73727 35025 ft 436 kts 213°
2026-05-08 20:24 45.78979 1.68783 35018 ft 436 kts 212°
2026-05-08 20:24 45.73980 1.63828 35021 ft 436 kts 212°
2026-05-08 20:25 45.69008 1.58908 35023 ft 436 kts 212°
2026-05-08 20:25 45.64035 1.53992 35025 ft 436 kts 212°
2026-05-08 20:26 45.59042 1.49058 35019 ft 436 kts 212°
2026-05-08 20:26 45.54047 1.44138 35017 ft 436 kts 212°
2026-05-08 20:27 45.49006 1.39303 35013 ft 434 kts 206°
2026-05-08 20:27 45.43454 1.36321 35003 ft 428 kts 191°
2026-05-08 20:28 45.37613 1.34443 35007 ft 428 kts 191°
2026-05-08 20:28 45.31833 1.32559 35010 ft 428 kts 191°
2026-05-08 20:29 45.26026 1.30666 35015 ft 428 kts 191°
2026-05-08 20:29 45.20211 1.28780 35010 ft 427 kts 191°
2026-05-08 20:30 45.14443 1.26920 35020 ft 427 kts 192°
2026-05-08 20:30 45.08640 1.25066 35016 ft 426 kts 192°
2026-05-08 20:31 45.02872 1.23218 35015 ft 426 kts 192°
2026-05-08 20:31 44.97115 1.21359 35003 ft 425 kts 192°
2026-05-08 20:32 44.91324 1.19494 34989 ft 425 kts 192°
2026-05-08 20:32 44.85559 1.17658 34991 ft 425 kts 192°
2026-05-08 20:33 44.79810 1.15835 34984 ft 425 kts 192°
2026-05-08 20:33 44.74021 1.13996 34997 ft 425 kts 193°
2026-05-08 20:34 44.68254 1.12158 34987 ft 426 kts 193°
2026-05-08 20:35 44.59586 1.09412 34983 ft 426 kts 193°
2026-05-08 20:35 44.53795 1.07583 34984 ft 426 kts 193°
2026-05-08 20:36 44.48019 1.05761 34978 ft 426 kts 193°
2026-05-08 20:36 44.42261 1.03947 34973 ft 426 kts 193°
2026-05-08 20:37 44.36464 1.02123 34973 ft 426 kts 194°
2026-05-08 20:37 44.30706 1.00310 34974 ft 425 kts 194°
2026-05-08 20:38 44.24910 0.98497 34977 ft 425 kts 194°
2026-05-08 20:38 44.19161 0.96703 34970 ft 425 kts 195°
2026-05-08 20:39 44.13386 0.94906 34972 ft 425 kts 195°
2026-05-08 20:39 44.07640 0.93130 34977 ft 425 kts 195°
2026-05-08 20:40 44.01858 0.91339 34966 ft 425 kts 195°
2026-05-08 20:40 43.96121 0.89557 34975 ft 424 kts 195°
2026-05-08 20:41 43.90364 0.87765 34981 ft 423 kts 195°
2026-05-08 20:41 43.84626 0.86075 34979 ft 423 kts 194°
2026-05-08 20:42 43.78821 0.84563 34978 ft 422 kts 194°
2026-05-08 20:42 43.73041 0.83074 34989 ft 422 kts 194°
2026-05-08 20:43 43.67301 0.81561 34987 ft 421 kts 194°
2026-05-08 20:43 43.61574 0.80024 34978 ft 420 kts 194°
2026-05-08 20:44 43.55815 0.78486 34988 ft 420 kts 194°
2026-05-08 20:44 43.50104 0.76974 34989 ft 419 kts 194°
2026-05-08 20:45 43.44390 0.75464 34995 ft 419 kts 194°
2026-05-08 20:45 43.38645 0.73944 34984 ft 418 kts 195°
2026-05-08 20:46 43.32952 0.72432 34990 ft 418 kts 195°
2026-05-08 20:46 43.27231 0.70917 34990 ft 418 kts 195°
2026-05-08 20:47 43.21539 0.69430 34983 ft 417 kts 195°
2026-05-08 20:47 43.15863 0.67957 34995 ft 417 kts 195°
2026-05-08 20:48 43.10161 0.66465 35002 ft 417 kts 195°
2026-05-08 20:48 43.04447 0.64965 35005 ft 417 kts 195°
2026-05-08 20:49 42.98756 0.63483 35009 ft 416 kts 196°
2026-05-08 20:49 42.93116 0.62021 35017 ft 414 kts 196°
2026-05-08 20:50 42.87443 0.60541 35028 ft 413 kts 196°
2026-05-08 20:50 42.81826 0.59077 35028 ft 412 kts 196°
2026-05-08 20:51 42.76181 0.57617 35052 ft 414 kts 196°
2026-05-08 20:51 42.70524 0.56128 35038 ft 411 kts 199°
2026-05-08 20:52 42.65258 0.53267 35037 ft 408 kts 209°
2026-05-08 20:52 42.60134 0.49957 35007 ft 409 kts 210°
2026-05-08 20:53 42.54976 0.46655 35031 ft 410 kts 210°
2026-05-08 20:53 42.49833 0.43386 35040 ft 411 kts 210°
2026-05-08 20:54 42.44648 0.40092 35056 ft 411 kts 210°
2026-05-08 20:54 42.39466 0.36796 35059 ft 411 kts 210°
2026-05-08 20:55 42.34312 0.33518 35073 ft 408 kts 210°
2026-05-08 20:55 42.29198 0.30276 35071 ft 406 kts 211°
2026-05-08 20:56 42.24067 0.27023 35064 ft 406 kts 211°
2026-05-08 20:56 42.18989 0.23808 35042 ft 404 kts 211°
2026-05-08 20:57 42.13904 0.20606 35069 ft 400 kts 212°
2026-05-08 20:57 42.08870 0.17475 35063 ft 399 kts 208°
2026-05-08 20:58 42.03368 0.15990 35056 ft 419 kts 189°
2026-05-08 20:58 41.97475 0.16467 35036 ft 423 kts 187°
2026-05-08 20:59 41.91609 0.16996 35049 ft 421 kts 187°
2026-05-08 20:59 41.85776 0.17508 35049 ft 420 kts 187°
2026-05-08 21:00 41.79987 0.18005 35050 ft 419 kts 187°
2026-05-08 21:00 41.74174 0.18504 35038 ft 418 kts 188°
2026-05-08 21:01 41.68373 0.18999 35046 ft 417 kts 188°
2026-05-08 21:01 41.62583 0.19493 35045 ft 417 kts 188°
2026-05-08 21:02 41.57763 0.19908 35040 ft 416 kts 188°
2026-05-08 21:02 41.51966 0.20401 35026 ft 416 kts 188°
2026-05-08 21:03 41.46197 0.20893 35026 ft 415 kts 188°
2026-05-08 21:03 41.40429 0.21383 35025 ft 415 kts 188°
2026-05-08 21:04 41.34689 0.21697 34986 ft 405 kts 195°
2026-05-08 21:04 41.29227 0.20538 35000 ft 395 kts 200°
2026-05-08 21:05 41.23855 0.19207 35009 ft 395 kts 200°
2026-05-08 21:05 41.18449 0.17875 35010 ft 395 kts 200°
2026-05-08 21:06 41.13054 0.16526 34996 ft 391 kts 204°
2026-05-08 21:06 41.07891 0.14486 34998 ft 387 kts 206°
2026-05-08 21:07 41.02742 0.12402 35003 ft 387 kts 206°
2026-05-08 21:07 40.97593 0.10329 35011 ft 387 kts 206°
2026-05-08 21:08 40.92475 0.08274 35014 ft 387 kts 206°
2026-05-08 21:08 40.87312 0.06203 34994 ft 387 kts 206°
2026-05-08 21:09 40.82150 0.04127 34997 ft 387 kts 206°
2026-05-08 21:09 40.76992 0.02054 35008 ft 387 kts 206°
2026-05-08 21:10 40.71832 -0.00012 34968 ft 388 kts 206°
2026-05-08 21:10 40.69255 -0.01041 34684 ft 387 kts 206°
2026-05-08 21:10 40.66687 -0.02061 34018 ft 385 kts 206°
2026-05-08 21:10 40.64118 -0.03082 33129 ft 385 kts 205°
2026-05-08 21:11 40.61554 -0.04100 32316 ft 385 kts 205°
2026-05-08 21:11 40.59015 -0.05108 31488 ft 386 kts 204°
2026-05-08 21:11 40.56435 -0.06133 30639 ft 389 kts 204°
2026-05-08 21:11 40.53817 -0.07176 29550 ft 396 kts 204°
2026-05-08 21:12 40.51157 -0.08235 28375 ft 402 kts 203°
2026-05-08 21:12 40.48457 -0.09306 27225 ft 407 kts 202°
2026-05-08 21:12 40.45732 -0.10387 26100 ft 411 kts 202°
2026-05-08 21:12 40.42985 -0.11475 25020 ft 414 kts 201°
2026-05-08 21:13 40.40216 -0.12572 23970 ft 416 kts 201°
2026-05-08 21:13 40.37435 -0.13672 22831 ft 418 kts 200°
2026-05-08 21:13 40.34679 -0.14758 21678 ft 420 kts 200°
2026-05-08 21:13 40.31888 -0.15855 20808 ft 416 kts 200°
2026-05-08 21:14 40.29126 -0.16935 19986 ft 413 kts 200°
2026-05-08 21:14 40.26376 -0.18013 19188 ft 411 kts 200°
2026-05-08 21:14 40.23651 -0.19096 18505 ft 410 kts 200°
2026-05-08 21:14 40.20928 -0.20211 17925 ft 409 kts 201°
2026-05-08 21:15 40.18218 -0.21340 17339 ft 408 kts 201°
2026-05-08 21:15 40.15523 -0.22466 16765 ft 406 kts 201°
2026-05-08 21:15 40.12826 -0.23588 16194 ft 404 kts 200°
2026-05-08 21:15 40.10178 -0.24685 15631 ft 402 kts 200°
2026-05-08 21:16 40.07506 -0.25789 15093 ft 401 kts 200°
2026-05-08 21:16 40.04852 -0.26881 14516 ft 399 kts 200°
2026-05-08 21:16 40.02209 -0.27965 13945 ft 397 kts 200°
2026-05-08 21:16 39.99583 -0.29038 13344 ft 394 kts 199°
2026-05-08 21:17 39.96955 -0.30054 12770 ft 393 kts 198°
2026-05-08 21:17 39.94350 -0.31009 12219 ft 391 kts 197°
2026-05-08 21:17 39.91744 -0.31935 11660 ft 389 kts 197°
2026-05-08 21:17 39.89151 -0.32848 11275 ft 379 kts 197°
2026-05-08 21:18 39.86672 -0.33722 11153 ft 360 kts 197°
2026-05-08 21:18 39.84311 -0.34563 11022 ft 344 kts 197°
2026-05-08 21:18 39.82068 -0.35424 10897 ft 328 kts 203°
2026-05-08 21:18 39.80185 -0.36938 10775 ft 312 kts 223°
2026-05-08 21:19 39.78901 -0.39120 10650 ft 299 kts 243°
2026-05-08 21:19 39.78305 -0.41653 10526 ft 290 kts 262°
2026-05-08 21:19 39.78358 -0.44241 10357 ft 284 kts 274°
2026-05-08 21:19 39.78486 -0.46803 10257 ft 283 kts 269°
2026-05-08 21:20 39.78469 -0.49362 10134 ft 283 kts 266°
2026-05-08 21:20 39.78339 -0.51892 9995 ft 283 kts 263°
2026-05-08 21:20 39.78091 -0.54434 9574 ft 284 kts 259°
2026-05-08 21:20 39.77720 -0.56943 9201 ft 281 kts 256°
2026-05-08 21:21 39.77227 -0.59390 8843 ft 279 kts 252°
2026-05-08 21:21 39.76617 -0.61773 8491 ft 277 kts 248°
2026-05-08 21:21 39.75893 -0.64092 8133 ft 276 kts 245°
2026-05-08 21:21 39.75062 -0.66339 7771 ft 275 kts 241°
2026-05-08 21:22 39.74126 -0.68501 7421 ft 273 kts 238°
2026-05-08 21:22 39.73088 -0.70569 7079 ft 272 kts 234°
2026-05-08 21:22 39.71963 -0.72538 6715 ft 271 kts 230°
2026-05-08 21:22 39.70753 -0.74407 6366 ft 270 kts 227°
2026-05-08 21:23 39.69474 -0.76144 6045 ft 268 kts 223°
2026-05-08 21:23 39.68090 -0.77689 5912 ft 255 kts 207°
2026-05-08 21:23 39.66469 -0.78337 5769 ft 238 kts 180°
2026-05-08 21:23 39.64863 -0.78200 5669 ft 226 kts 173°
2026-05-08 21:24 39.63339 -0.77919 5561 ft 215 kts 161°
2026-05-08 21:24 39.62036 -0.77094 5440 ft 204 kts 142°
2026-05-08 21:24 39.61038 -0.75781 5106 ft 207 kts 127°
2026-05-08 21:24 39.60180 -0.74274 4802 ft 209 kts 127°
2026-05-08 21:25 39.59307 -0.72762 4480 ft 209 kts 127°
2026-05-08 21:25 39.58442 -0.71267 4177 ft 209 kts 126°
2026-05-08 21:25 39.57556 -0.69733 3865 ft 210 kts 126°
2026-05-08 21:25 39.56690 -0.68236 3566 ft 211 kts 126°
2026-05-08 21:26 39.55932 -0.66622 3266 ft 210 kts 115°
2026-05-08 21:26 39.55293 -0.64924 2955 ft 210 kts 115°
2026-05-08 21:26 39.54650 -0.63221 2648 ft 209 kts 115°
2026-05-08 21:26 39.54012 -0.61533 2361 ft 208 kts 115°
2026-05-08 21:27 39.53386 -0.59883 2065 ft 201 kts 115°
2026-05-08 21:27 39.52794 -0.58322 1776 ft 184 kts 115°
2026-05-08 21:27 39.52252 -0.56900 1512 ft 169 kts 115°
2026-05-08 21:27 39.51753 -0.55595 1300 ft 152 kts 116°
2026-05-08 21:28 39.51302 -0.54410 1052 ft 142 kts 115°
2026-05-08 21:28 39.50872 -0.53271 844 ft 140 kts 114°
2026-05-08 21:28 39.50449 -0.52157 675 ft 137 kts 115°
2026-05-08 21:28 39.50025 -0.51041 479 ft 139 kts 113°
2026-05-08 21:29 39.49607 -0.49926 279 ft 137 kts 114°
2026-05-08 21:29 39.49232 -0.48942 221 ft 91 kts 117°
2026-05-08 21:29 39.49054 -0.48478 210 ft 44 kts 115°
2026-05-08 21:29 39.48973 -0.48247 205 ft 23 kts 99°
2026-05-08 21:30 39.48991 -0.48047 204 ft 22 kts 73°
2026-05-08 21:30 39.49027 -0.47845 205 ft 24 kts 77°
2026-05-08 21:30 39.49082 -0.47733 204 ft 11 kts 346°
2026-05-08 21:30 39.49152 -0.47718 208 ft 11 kts 25°
2026-05-08 21:31 39.49178 -0.47622 206 ft 14 kts 87°
2026-05-08 21:31 39.49187 -0.47599 197 ft 0 kts 46°